Slidell, LA

2:26 AM CST on November 21, 2017 (GMT -0600)
Slidell

Weather History for KASD - January, 2013

Change the Weather History Date:

Thursday, January 3, 2013

  Actual Average (KNEW) Record (KNEW)
Temperature  
Mean Temperature 42 °F -  
Max Temperature 50 °F 61 °F 80 °F (2000)
Min Temperature 33 °F 46 °F 23 °F (1979)
Degree Days  
Heating Degree Days 24    
Moisture  
Dew Point 35 °F    
Average Humidity 82    
Maximum Humidity 100    
Minimum Humidity 41    
Precipitation  
Precipitation 0.18 in - - ()
Sea Level Pressure  
Sea Level Pressure 30.29 in    
Wind  
Wind Speed 7 mph (North)    
Max Wind Speed 15 mph    
Max Gust Speed 22 mph    
Visibility 8 miles    
Events Rain    
Averages and records for this station are not official NWS values.
T = Trace of Precipitation, MM = Missing Value Source: NWS Daily Summary

Daily Weather History Graph

Daily Weather History Graph

Search for Another Location

Airport or City:

Trip Planner

Search our weather history database for the weather conditions in past years. The results will help you decide how hot, cold, wet, or windy it might be!

Date:

Astronomy

Jan. 03, 2013 Rise Set
Actual Time 6:56 AM CST 5:11 PM CST
Civil Twilight 6:30 AM CST 5:37 PM CST
Nautical Twilight 6:00 AM CST 6:07 PM CST
Astronomical Twilight 5:31 AM CST 6:37 PM CST
Moon 11:17 PM CST (1/3) 10:35 AM CST (1/3)
Length of Visible Light 11h 07m
Length of Day
10h 15m
Waning Gibbous, 65% of the Moon is Illuminated
Jan 3
Waning Gibbous
Jan 4
Last Quarter
Jan 11
New
Jan 18
First Quarter
Jan 26
Full

Hourly Weather History & Observations

Time (CST) Temp. Windchill Dew Point Humidity Pressure Visibility Wind Dir Wind Speed Gust Speed Precip Events Conditions
12:49 AM 42.8 °F 38.6 °F 41.0 °F 93% 30.22 in 5.0 mi North 6.9 mph - 0.04 in Rain Light Rain
1:53 AM 42.1 °F 38.4 °F 41.0 °F 96% 30.21 in 7.0 mi North 5.8 mph - 0.04 in Rain Light Rain
2:33 AM 42.8 °F 38.6 °F 41.0 °F 93% 30.22 in 7.0 mi North 6.9 mph - 0.01 in Rain Light Rain
2:53 AM 42.1 °F 39.2 °F 41.0 °F 96% 30.24 in 6.0 mi NNW 4.6 mph - 0.02 in Rain Light Rain
3:53 AM 41.0 °F 37.1 °F 41.0 °F 100% 30.24 in 5.0 mi North 5.8 mph - 0.04 in Rain Rain
4:10 AM 41.0 °F 38.0 °F 41.0 °F 100% 30.23 in 4.0 mi North 4.6 mph - 0.03 in Rain Rain
4:41 AM 41.0 °F 35.8 °F 39.2 °F 93% 30.24 in 5.0 mi North 8.1 mph - 0.06 in Rain Light Rain
4:53 AM 41.0 °F 36.4 °F 39.9 °F 96% 30.23 in 5.0 mi NNE 6.9 mph - 0.06 in Rain Light Rain
5:53 AM 41.0 °F 36.4 °F 39.0 °F 93% 30.28 in 6.0 mi North 6.9 mph - 0.02 in   Overcast
6:10 AM 41.0 °F 36.4 °F 39.2 °F 93% 30.27 in 6.0 mi North 6.9 mph - N/A   Overcast
6:21 AM 39.2 °F 33.6 °F 39.2 °F 100% 30.26 in 5.0 mi NNE 8.1 mph - N/A   Mostly Cloudy
6:35 AM 39.2 °F 33.6 °F 39.2 °F 100% 30.28 in 7.0 mi NNW 8.1 mph - N/A   Scattered Clouds
6:53 AM 39.9 °F 35.1 °F 39.0 °F 97% 30.27 in 5.0 mi NNW 6.9 mph - N/A   Scattered Clouds
6:56 AM 39.2 °F 33.6 °F 39.2 °F 100% 30.28 in 5.0 mi NNW 8.1 mph - N/A   Mostly Cloudy
7:09 AM 39.2 °F 32.0 °F 37.4 °F 93% 30.27 in 6.0 mi North 11.5 mph - N/A   Mostly Cloudy
7:21 AM 39.2 °F 32.5 °F 37.4 °F 93% 30.29 in 7.0 mi North 10.4 mph 17.3 mph N/A   Scattered Clouds
7:53 AM 39.0 °F 33.4 °F 36.0 °F 89% 30.30 in 9.0 mi North 8.1 mph - N/A   Clear
8:53 AM 39.9 °F 32.1 °F 34.0 °F 79% 30.32 in 10.0 mi North 13.8 mph - N/A   Clear
9:53 AM 42.1 °F 36.1 °F 30.9 °F 65% 30.33 in 10.0 mi North 10.4 mph - N/A   Clear
10:53 AM 43.0 °F 36.0 °F 30.0 °F 60% 30.32 in 10.0 mi North 13.8 mph - N/A   Clear
11:53 AM 46.0 °F 40.2 °F 28.9 °F 51% 30.30 in 10.0 mi North 12.7 mph 19.6 mph N/A   Clear
12:53 PM 46.9 °F - 26.1 °F 44% 30.27 in 10.0 mi North 13.8 mph 21.9 mph N/A   Clear
1:53 PM 48.0 °F - 26.1 °F 42% 30.26 in 10.0 mi North 11.5 mph - N/A   Clear
2:53 PM 48.9 °F - 26.1 °F 41% 30.26 in 10.0 mi North 15.0 mph - N/A   Clear
3:53 PM 50.0 °F - 27.0 °F 41% 30.27 in 10.0 mi NNE 8.1 mph - N/A   Clear
4:53 PM 46.9 °F - 28.9 °F 50% 30.30 in 10.0 mi North 4.6 mph - N/A   Clear
5:53 PM 42.1 °F - 34.0 °F 73% 30.33 in 10.0 mi Calm Calm - N/A   Clear
6:53 PM 36.0 °F - 33.1 °F 89% 30.35 in 10.0 mi Calm Calm - N/A   Clear
7:53 PM 35.1 °F - 32.0 °F 89% 30.36 in 10.0 mi Calm Calm - N/A   Clear
8:53 PM 34.0 °F - 32.0 °F 92% 30.38 in 10.0 mi Calm Calm - N/A   Clear
9:53 PM 33.1 °F 27.7 °F 30.0 °F 89% 30.37 in 10.0 mi North 5.8 mph - N/A   Clear
10:53 PM 33.1 °F - 30.0 °F 89% 30.38 in 10.0 mi Calm Calm - N/A   Clear
11:53 PM 35.1 °F 32.2 °F 30.0 °F 82% 30.38 in 10.0 mi North 3.5 mph - N/A   Clear